This demonstration page uses our WeatherBlox Daily Observations layout. Learn more.

Left ArrowRight Arrow

44.89941, -97.11507

Hourly Observations for June 11, 2018

Temp ( °F °C ) Dew Point ( °F °C ) Humidity (%) Winds ( mph kmh ) Pressure ( in mb ) Visibility ( mi km ) Precip ( " mm )
12:53 am 00:53 Cloudy 67 19.4 64 17.8 91 91 SE 15 24 29.67 1005 10 16 0.00 0.00
1:53 am 01:53 Mostly Cloudy 66 18.9 63 17.2 90 90 ESE 13 20 29.67 1005 10 16 0.00 0.00
2:53 am 02:53 Cloudy 66 18.9 63 17.2 90 90 SE 14 22 29.67 1005 10 16 0.00 0.00
3:53 am 03:53 Cloudy 66 18.9 63 17.2 90 90 undefined N/A 29.75 1007 10 16 0.00 0.00
4:03 am 04:03 Cloudy with Nearby Thunderstorms 65 18.3 60 15.6 84 84 NNW 26 43 29.74 1007 10 16 0.00 0.00
4:11 am 04:11 Cloudy with Nearby Thunderstorms 64 17.8 61 16.1 90 90 NNW 25 41 29.74 1007 10 16 0.00 0.00
4:18 am 04:18 Windy with Storms Likely 63 17.2 60 15.6 90 90 N 26 43 29.74 1007 10 16 0.00 0.03
4:36 am 04:36 Cloudy with Thunderstorms 61 16.1 61 16.1 100 100 N 17 28 29.74 1007 3 5 0.07 1.78
4:43 am 04:43 Cloudy with Thunderstorms 61 16.1 61 16.1 100 100 N 13 20 29.74 1007 3 4 0.11 2.79
4:46 am 04:46 Cloudy with Thunderstorms 61 16.1 61 16.1 100 100 NNE 10 17 29.74 1007 3 5 0.11 2.79
4:53 am 04:53 Cloudy with Nearby Thunderstorms 61 16.1 61 16.1 100 100 NNE 12 19 29.74 1007 5 8 0.13 3.30
5:17 am 05:17 Cloudy 61 16.1 61 16.1 100 100 NE 7 11 29.71 1006 10 16 0.00 0.03
5:53 am 05:53 Cloudy with Light Rain 62 16.7 61 16.1 96 96 Calm 29.73 1007 10 16 0.03 0.76
6:53 am 06:53 Cloudy 64 17.8 64 17.8 100 100 ESE 7 11 29.71 1006 7 11 0.03 0.76
7:11 am 07:11 Cloudy 64 17.8 63 17.2 96 96 ESE 7 11 29.71 1006 9 14 0.00 0.00
7:48 am 07:48 Cloudy 64 18 64 18 100 100 VRB 5 7 29.74 1007 7 11 0.00 0.00
7:53 am 07:53 Cloudy 64 17.8 64 17.8 100 100 E 5 7 29.75 1007 7 11 0.00 0.00
8:03 am 08:03 Cloudy 64 17.8 63 17.2 96 96 NNW 6 9 29.74 1007 7 11 0.00 0.00
8:33 am 08:33 Cloudy with Mist and Fog 63 17.2 63 17.2 100 100 NE 6 9 29.74 1007 5 8 0.00 0.03
8:53 am 08:53 Cloudy with Mist and Fog 63 17.2 63 17.2 100 100 NNE 6 9 29.76 1008 6 10 0.00 0.03
9:00 am 09:00 Cloudy with Light Rain 63 17.2 63 17.2 100 100 ENE 7 11 29.74 1007 5 8 0.01 0.25
9:26 am 09:26 Cloudy with Nearby Thunderstorms 62 16.7 62 16.7 100 100 E 8 13 29.74 1007 7 11 0.01 0.25
9:35 am 09:35 Cloudy with Mist and Fog 62 16.7 62 16.7 100 100 E 12 19 29.74 1007 6 10 0.01 0.25
9:42 am 09:42 Cloudy with Nearby Thunderstorms 62 16.7 62 16.7 100 100 E 12 19 29.74 1007 6 10 0.01 0.25
9:53 am 09:53 Cloudy with Nearby Thunderstorms 62 16.7 62 16.7 100 100 ENE 12 19 29.76 1008 6 10 0.01 0.25
10:11 am 10:11 Cloudy with Strong Thunderstorms 62 16.7 62 16.7 100 100 E 10 17 29.77 1008 3 4 0.08 2.03
10:14 am 10:14 Cloudy with Thunderstorms 62 16.7 62 16.7 100 100 E 12 19 29.77 1008 1 2 0.16 4.06
10:23 am 10:23 Cloudy with Strong Thunderstorms 61 16.1 61 16.1 100 100 VRB 3 6 29.77 1008 0 0 0.62 15.75
10:32 am 10:32 Cloudy with Strong Thunderstorms 61 16.1 61 16.1 100 100 E 17 28 29.71 1006 0 0 1.09 27.69
10:41 am 10:41 Mostly Cloudy with Strong Thunderstorms 61 16.1 61 16.1 100 100 E 20 31 29.74 1007 1 1 1.31 33.27
10:53 am 10:53 Cloudy with Strong Thunderstorms 61 16.1 61 16.1 100 100 E 16 26 29.75 1007 1 2 1.52 38.61
11:02 am 11:02 Cloudy with Strong Thunderstorms 61 16.1 61 16.1 100 100 E 17 28 29.68 1005 2 3 0.06 1.52
11:13 am 11:13 Cloudy with Nearby Thunderstorms 61 16.1 61 16.1 100 100 E 18 30 29.68 1005 3 5 0.12 3.05
11:37 am 11:37 Mostly Cloudy 62 16.7 61 16.1 96 96 ESE 13 20 29.74 1007 10 16 0.12 3.05
11:53 am 11:53 Mostly Sunny 62 16.7 61 16.1 96 96 ESE 13 20 29.74 1007 10 16 0.12 3.05
12:22 pm 12:22 Mostly Cloudy with Nearby Thunderstorms 63 17.2 61 16.1 93 93 SE 15 24 29.77 1008 10 16 0.00 0.00
12:37 pm 12:37 Mostly Cloudy 63 17.2 61 16.1 93 93 SE 15 24 29.77 1008 10 16 0.00 0.00
12:53 pm 12:53 Mostly Cloudy 63 17.2 62 16.7 97 97 ESE 13 20 29.80 1009 10 16 0.00 0.00
1:53 pm 13:53 Cloudy 66 18.9 63 17.2 90 90 ESE 14 22 29.79 1009 10 16 0.00 0.00
2:53 pm 14:53 Mostly Sunny 69 20.6 63 17.2 81 81 SE 10 17 29.79 1009 10 16 0.00 0.00
3:53 pm 15:53 Mostly Cloudy 70 21.1 64 17.8 82 82 S 9 15 29.80 1009 10 16 0.00 0.00
4:31 pm 16:31 Mostly Cloudy 71 21.7 65 18.3 81 81 SE 7 11 29.77 1008 10 16 0.00 0.00
4:53 pm 16:53 Mostly Cloudy 71 21.7 64 17.8 79 79 S 3 6 29.80 1009 10 16 0.00 0.00
5:12 pm 17:12 Mostly Cloudy 72 22.2 65 18.3 79 79 Calm 29.77 1008 10 16 0.00 0.00
5:25 pm 17:25 Mostly Cloudy 72 22.2 65 18.3 79 79 SE 6 9 29.77 1008 10 16 0.00 0.00
5:53 pm 17:53 Cloudy 70 21.1 65 18.3 84 84 SE 7 11 29.81 1010 10 16 0.00 0.00
6:53 pm 18:53 Cloudy 69 20.6 64 17.8 84 84 ESE 7 11 29.81 1010 10 16 0.00 0.00
7:16 pm 19:16 Cloudy 69 20.6 64 17.8 84 84 ESE 6 9 29.77 1008 10 16 0.00 0.00
7:53 pm 19:53 Cloudy 69 20.6 65 18.3 87 87 VRB 5 7 29.82 1010 10 16 0.00 0.00
8:17 pm 20:17 Cloudy 67 19.4 65 18.3 93 93 SE 8 13 29.80 1009 10 16 0.00 0.00
8:50 pm 20:50 Mostly Cloudy 66 19 64 18 94 94 VRB 6 9 29.77 1008 10 16 0.00 0.00
8:53 pm 20:53 Cloudy 67 19.4 64 17.8 91 91 SE 5 7 29.83 1010 10 16 0.00 0.00
9:06 pm 21:06 Cloudy 66 18.9 64 17.8 93 93 E 6 9 29.80 1009 10 16 0.00 0.00
9:24 pm 21:24 Cloudy 66 18.9 64 17.8 93 93 E 6 9 29.83 1010 10 16 0.00 0.00
9:42 pm 21:42 Cloudy 66 18.9 64 17.8 93 93 ESE 3 6 29.85 1011 10 16 0.00 0.00
9:49 pm 21:49 Cloudy 66 19 64 18 94 94 ESE 3 6 29.85 1011 10 16 0.00 0.00
9:53 pm 21:53 Cloudy 66 18.9 64 17.8 93 93 Calm 29.86 1011 10 16 0.00 0.00
10:33 pm 22:33 Cloudy 65 18.3 63 17.2 93 93 NNE 9 15 29.88 1012 10 16 0.00 0.00
10:53 pm 22:53 Cloudy 63 17.2 63 17.2 100 100 NNE 7 11 29.90 1013 10 16 0.00 0.00
11:53 pm 23:53 Cloudy 62 16.7 61 16.1 96 96 NE 8 13 29.90 1013 10 16 0.00 0.00

Powered by AerisWeather